FW5968 Weather Reports


time (UTC)temp
C
wind
direction
speed
KPH
gust
KPH
rain 1hr
cm
rain 24hr
cm
rain mn
cm
humidity
%
barometer
mb
20260503185515 14 0.0 0.0 0.00 0.00 0.00 78 1013.1
20260503184516 14 0.0 0.0 0.00 0.00 0.00 78 1013.1
20260503183535 14 0.0 0.0 0.00 0.00 0.00 78 1013.0
20260503182536 15 0.0 0.0 0.00 0.00 0.00 78 1013.0
20260503181516 15 0.0 0.0 0.00 0.00 0.00 77 1012.9
20260503180555 15 0.0 0.0 0.00 0.00 0.00 77 1013.0
20260503175516 15 0.0 0.0 0.00 0.00 0.00 77 1013.0
20260503174516 15 0.0 0.0 0.00 0.00 0.00 77 1013.0
20260503173517 15 0.0 0.0 0.00 0.00 0.00 77 1013.1
20260503172515 15 0.0 0.0 0.00 0.00 0.00 76 1013.1
20260503171535 15 0.0 0.0 0.00 0.00 0.00 76 1013.1
20260503170515 15 0.0 0.0 0.00 0.00 0.00 75 1013.1
20260503150516 18 0.0 0.0 0.00 0.00 0.00 77 1013.4
20260503130556 18 0.0 0.0 0.00 0.00 0.00 80 1013.9
20260503110515 16 0.0 0.0 0.00 0.00 0.00 82 1014.3
20260503081516 16 0.0 0.0 0.00 0.00 0.00 84 1014.0
20260503080515 16 0.0 0.0 0.00 0.00 0.00 84 1014.0
20260503072516 16 0.0 0.0 0.00 0.00 0.00 84 1013.8
20260503071516 16 0.0 0.0 0.00 0.00 0.00 84 1013.8
20260503070516 15 0.0 0.0 0.00 0.00 0.00 84 1013.8
20260503054515 12 0.0 0.0 0.00 0.00 0.00 83 1013.5
20260503053515 12 0.0 0.0 0.00 0.00 0.00 83 1013.5
20260503052516 11 0.0 0.0 0.00 0.00 0.00 83 1013.4
20260503051635 11 0.0 0.0 0.00 0.00 0.00 83 1013.3
20260503050515 12 0.0 0.0 0.00 0.00 0.00 83 1013.3
20260503045515 12 0.0 0.0 0.00 0.00 0.00 83 1013.4
20260503044536 12 0.0 0.0 0.00 0.00 0.00 83 1013.4
20260503043516 12 0.0 0.0 0.00 0.00 0.00 83 1013.3
20260503042516 12 0.0 0.0 0.00 0.00 0.00 83 1013.3
20260503041536 12 0.0 0.0 0.00 0.00 0.00 83 1013.4
20260503040535 12 0.0 0.0 0.00 0.00 0.00 83 1013.4
20260503035516 12 0.0 0.0 0.00 0.00 0.00 83 1013.4
20260503034516 12 0.0 0.0 0.00 0.00 0.00 83 1013.4
20260503033536 12 0.0 0.0 0.00 0.00 0.00 83 1013.4
20260503032535 12 0.0 0.0 0.00 0.00 0.00 83 1013.4
20260503031515 12 0.0 0.0 0.00 0.00 0.00 83 1013.6
20260503030516 12 0.0 0.0 0.00 0.00 0.00 83 1013.5
20260503025536 12 0.0 0.0 0.00 0.00 0.00 83 1013.5
20260503024536 12 0.0 0.0 0.00 0.00 0.00 83 1013.5
20260503023515 12 0.0 0.0 0.00 0.00 0.00 83 1013.5
20260503022516 12 0.0 0.0 0.00 0.00 0.00 83 1013.6
20260503021515 12 0.0 0.0 0.00 0.00 0.00 83 1013.8
20260503020516 12 0.0 0.0 0.00 0.00 0.00 83 1013.8
20260503015516 12 0.0 0.0 0.00 0.00 0.00 82 1013.8
20260503014515 12 0.0 0.0 0.00 0.00 0.00 82 1014.0
20260503013516 13 0.0 0.0 0.00 0.00 0.00 82 1014.0
20260503012515 13 0.0 0.0 0.00 0.00 0.00 81 1014.2
20260503011516 13 0.0 0.0 0.00 0.00 0.00 81 1014.3
20260503010515 13 0.0 0.0 0.00 0.00 0.00 81 1014.3
20260503005516 13 0.0 0.0 0.00 0.00 0.00 81 1014.3
20260503004516 13 0.0 0.0 0.00 0.00 0.00 81 1014.4
20260503003516 13 0.0 0.0 0.00 0.00 0.00 81 1014.5
20260503002516 13 0.0 0.0 0.00 0.00 0.00 81 1014.6
20260503001516 13 0.0 0.0 0.00 0.00 0.00 81 1014.6
20260503000516 13 0.0 0.0 0.00 0.00 0.00 80 1014.7
20260502235535 13 0.0 0.0 0.00 0.00 0.00 80 1014.8
20260502234515 13 0.0 0.0 0.00 0.00 0.00 80 1014.8
20260502233536 13 0.0 0.0 0.00 0.00 0.00 80 1014.9
20260502232517 13 0.0 0.0 0.00 0.00 0.00 80 1014.9
20260502231516 13 0.0 0.0 0.00 0.00 0.00 80 1015.0
20260502230515 14 0.0 0.0 0.00 0.00 0.00 80 1015.0
20260502225516 14 0.0 0.0 0.00 0.00 0.00 80 1015.0
20260502224516 14 0.0 0.0 0.00 0.00 0.00 80 1015.0
20260502223535 14 0.0 0.0 0.00 0.00 0.00 80 1015.0
20260502222516 14 0.0 0.0 0.00 0.00 0.00 80 1015.0
20260502221537 14 0.0 0.0 0.00 0.00 0.00 80 1015.0
20260502220515 14 0.0 0.0 0.00 0.00 0.00 79 1015.0
20260502215556 14 0.0 0.0 0.00 0.00 0.00 79 1015.0
20260502214516 14 0.0 0.0 0.00 0.00 0.00 79 1015.0
20260502213516 14 0.0 0.0 0.00 0.00 0.00 79 1015.1
20260502212535 15 0.0 0.0 0.00 0.00 0.00 79 1015.1
20260502211516 15 0.0 0.0 0.00 0.00 0.00 79 1015.1
20260502210535 15 0.0 0.0 0.00 0.00 0.00 79 1015.0
20260502205516 15 0.0 0.0 0.00 0.00 0.00 79 1014.9
20260502204516 15 0.0 0.0 0.00 0.00 0.00 79 1014.8
20260502203515 15 0.0 0.0 0.00 0.00 0.00 78 1014.6
20260502202516 16 0.0 0.0 0.00 0.00 0.00 78 1014.6
20260502201515 16 0.0 0.0 0.00 0.00 0.00 78 1014.5
20260502200516 16 0.0 0.0 0.00 0.00 0.00 78 1014.4
20260502195516 16 0.0 0.0 0.00 0.00 0.00 78 1014.4
20260502194515 16 0.0 0.0 0.00 0.00 0.00 78 1014.2
20260502193516 16 0.0 0.0 0.00 0.00 0.00 78 1014.3
20260502192535 16 0.0 0.0 0.00 0.00 0.00 78 1014.3
20260502191516 17 0.0 0.0 0.00 0.00 0.00 78 1014.3
20260502190515 17 0.0 0.0 0.00 0.00 0.00 78 1014.2